(25167) = 1997 JG = 1998 SO64 = 2107 T-2

Discovered at La Silla on 1998-09-20 by E. W. Elst.

Orbit

Orbit type: Main Belt

Note: WebGL enabled browser required.

epoch2024-03-31.0
epoch JD2460400.5
perihelion date2023-01-20.56197
perihelion JD2459965.06197
argument of perihelion (°)125.00315
ascending node (°)188.84273
inclination (°)12.55942
eccentricity0.1923775
perihelion distance (AU)2.0844279
Tisserand w.r.t. Jupiter3.4
ΔV w.r.t. Earth (km/sec)9.8
semimajor axis (AU)2.5809433
mean anomaly (°)103.50528
mean daily motion (°/day)0.23770380
aphelion distance (AU)3.077
period (years)4.15
P-vector [x]0.68970786
P-vector [y]-0.71477557
P-vector [z]-0.11575384
Q-vector [x]0.72331575
Q-vector [y]0.67273198
Q-vector [z]0.15571130
absolute magnitude15.27
phase slope0.15
uncertainty0
referenceMPEC 2024-E02
observations used1445
oppositions18
arc length (days)18379
first opposition used1973
last opposition used2024
residual rms (arc-secs)0.64
perturbers coarse indicatorM-v
perturbers precise indicator003Ek
first observation date used1973-09-19.0
last observation date used2024-01-14.0
computer nameMPCLINUX
JD of orbit computation2456909.170327
perihelion JD uncertainty (days)7.6351E-05
argument of perihelion uncertainty (°)3.0077E-05
ascending node uncertainty (°)2.1317E-05
inclination uncertainty (°)9.2887E-06
eccentricity uncertainty 6.8174E-08
perihelion distance uncertainty (AU)1.7824E-07
Minimum Orbit Intersection Distances (in AU)
for orbit epoch: 2460400.5, reference: E2024-E02
Mercury1.68027
Venus1.38424
Earth1.09976
Mars0.77068
Jupiter2.35788
Saturn6.1441
Uranus15.4499
Neptune27.1578

Observations

1471 total observations over interval: 1973 09 19.19948 – 2024 01 14.179383
These data are available for download (format description).

Date (UT) J2000 RA J2000 Dec Magn Location Ref
1973 09 19.19948 00 37 12.37 +06 10 24.2   675 – Palomar Mountain MPS 3217
1973 09 19.25006 00 37 10.29 +06 09 47.3   675 – Palomar Mountain MPS 3217
1973 09 20.26458 00 36 29.22 +05 57 17.9   675 – Palomar Mountain MPS 3217
1973 09 24.36181 00 33 37.99 +05 06 14.9   675 – Palomar Mountain MPS 3217
1973 09 24.42847 00 33 35.02 +05 05 23.2   675 – Palomar Mountain MPS 3217
1973 09 25.25642 00 32 59.85 +04 54 54.6   675 – Palomar Mountain MPS 3217
1973 09 25.32031 00 32 56.96 +04 54 05.6   675 – Palomar Mountain MPS 3217
1973 09 29.26632 00 30 06.65 +04 03 52.1   675 – Palomar Mountain MPS 3217
1973 09 29.33073 00 30 03.64 +04 03 01.9 18.5   675 – Palomar Mountain MPS 3217
1973 09 30.22257 00 29 25.29 +03 51 41.0   675 – Palomar Mountain MPS 3217
1973 09 30.28785 00 29 22.38 +03 50 51.9   675 – Palomar Mountain MPS 3217
1973 10 04.30208 00 26 30.68 +03 00 06.7   675 – Palomar Mountain MPS 3217
1973 10 04.36476 00 26 27.76 +02 59 19.8   675 – Palomar Mountain MPS 3217
1973 10 05.32917 00 25 47.48 +02 47 18.5   675 – Palomar Mountain MPS 3217
1973 10 05.39132 00 25 44.68 +02 46 31.6   675 – Palomar Mountain MPS 3217
1997 05 02.24767 14 21 33.73 -03 34 41.2 18.6 V 691 – Steward Observatory, Kitt Peak-Spacewatch MPC 29791
1997 05 02.27544 14 21 32.28 -03 34 27.0 18.6 V 691 – Steward Observatory, Kitt Peak-Spacewatch MPC 29791
1997 05 02.32564 14 21 29.71 -03 34 00.4 19.0 V 691 – Steward Observatory, Kitt Peak-Spacewatch MPC 29791
1997 05 03.23052 14 20 44.63 -03 25 59.8 18.6 V 691 – Steward Observatory, Kitt Peak-Spacewatch MPC 29791
1997 05 03.25216 14 20 43.51 -03 25 48.2 18.6 V 691 – Steward Observatory, Kitt Peak-Spacewatch MPC 29791
1997 05 03.27399 14 20 42.38 -03 25 36.9 18.7 V 691 – Steward Observatory, Kitt Peak-Spacewatch MPC 29791
1997 05 14.29961 14 12 00.11 -01 58 02.3 19.8 V 691 – Steward Observatory, Kitt Peak-Spacewatch MPS 80887
1997 05 14.30513 14 11 59.89 -01 58 00.4 19.7 V 691 – Steward Observatory, Kitt Peak-Spacewatch MPS 80887
1997 05 14.31293 14 11 59.54 -01 57 57.1 21.0 V 691 – Steward Observatory, Kitt Peak-Spacewatch MPS 80887
1998 09 18.42378 02 14 57.39 +09 54 10.6 18.1 R 699 – Lowell Observatory-LONEOS MPS 53788
1998 09 18.44792 02 14 56.93 +09 53 56.6   699 – Lowell Observatory-LONEOS MPS 53788
1998 09 18.47278 02 14 56.46 +09 53 44.9   699 – Lowell Observatory-LONEOS MPS 53788
1998 09 20.30764 02 14 23.83 +09 37 10.3 18.5   809 – European Southern Observatory, La Silla MPS 2717
1998 09 20.32083 02 14 23.50 +09 37 02.4   809 – European Southern Observatory, La Silla MPS 2717
1998 09 20.33403 02 14 23.22 +09 36 55.3   809 – European Southern Observatory, La Silla MPS 2717
1998 09 20.35069 02 14 22.76 +09 36 42.6 18.5   809 – European Southern Observatory, La Silla MPS 2717
1998 09 20.36389 02 14 22.51 +09 36 35.5   809 – European Southern Observatory, La Silla MPS 2717
1998 09 20.37708 02 14 22.19 +09 36 27.9   809 – European Southern Observatory, La Silla MPS 2717
1998 09 21.29583 02 14 03.86 +09 27 57.6   809 – European Southern Observatory, La Silla MPS 2717
1998 09 21.30903 02 14 03.48 +09 27 49.5   809 – European Southern Observatory, La Silla MPS 2717
1998 09 21.32222 02 14 03.18 +09 27 42.4   809 – European Southern Observatory, La Silla MPS 2717
1998 09 21.33958 02 14 02.59 +09 27 28.7   809 – European Southern Observatory, La Silla MPS 2717
1998 09 21.35278 02 14 02.27 +09 27 20.9   809 – European Southern Observatory, La Silla MPS 2717
1998 09 21.36597 02 14 01.94 +09 27 12.4   809 – European Southern Observatory, La Silla MPS 2718
1998 10 11.32518 02 02 18.91 +05 55 39.6 18.0 R 699 – Lowell Observatory-LONEOS MPS 2718
1998 10 11.34506 02 02 18.01 +05 55 25.4   699 – Lowell Observatory-LONEOS MPS 2718
1998 10 11.36493 02 02 16.98 +05 55 12.7   699 – Lowell Observatory-LONEOS MPS 2718
1998 10 20.32859 01 55 06.43 +04 16 23.7 17.6 R 699 – Lowell Observatory-LONEOS MPS 2718
1998 10 20.34844 01 55 05.48 +04 16 10.0   699 – Lowell Observatory-LONEOS MPS 2718
1998 10 20.36830 01 55 04.42 +04 15 57.9   699 – Lowell Observatory-LONEOS MPS 2718
1998 10 28.25393 01 48 42.98 +02 55 36.4 18.4   704 – Lincoln Laboratory ETS, New Mexico MPS 3040
1998 10 28.26969 01 48 42.38 +02 55 27.5 18.1   704 – Lincoln Laboratory ETS, New Mexico MPS 3040
1998 10 28.28541 01 48 41.61 +02 55 18.7 18.0   704 – Lincoln Laboratory ETS, New Mexico MPS 3040
1998 10 28.30110 01 48 40.81 +02 55 09.8 18.0   704 – Lincoln Laboratory ETS, New Mexico MPS 3040
1998 10 29.19965 01 47 59.17 +02 46 36.8 18.5   704 – Lincoln Laboratory ETS, New Mexico MPS 3040
1998 10 29.21965 01 47 58.31 +02 46 27.8 19.4   704 – Lincoln Laboratory ETS, New Mexico MPS 3040
1998 10 29.23972 01 47 57.12 +02 46 14.6 18.9   704 – Lincoln Laboratory ETS, New Mexico MPS 3040
1998 10 29.25972 01 47 56.21 +02 46 02.9 18.6   704 – Lincoln Laboratory ETS, New Mexico MPS 3040
1998 10 29.27975 01 47 55.25 +02 45 52.3 19.2   704 – Lincoln Laboratory ETS, New Mexico MPS 3040
1998 11 11.07982 01 39 13.21 +01 03 15.3 18.7   704 – Lincoln Laboratory ETS, New Mexico MPS 5875
1998 11 11.10173 01 39 12.60 +01 03 06.5 18.7   704 – Lincoln Laboratory ETS, New Mexico MPS 5875
1998 11 11.12380 01 39 11.69 +01 02 57.7 18.8   704 – Lincoln Laboratory ETS, New Mexico MPS 5875
1998 11 11.14556 01 39 11.08 +01 02 48.7 18.7   704 – Lincoln Laboratory ETS, New Mexico MPS 5875
1998 11 11.16730 01 39 10.16 +01 02 40.0 18.7   704 – Lincoln Laboratory ETS, New Mexico MPS 5875
2001 03 20.34459 13 38 26.59 -07 33 22.8 19.3 R 699 – Lowell Observatory-LONEOS MPS 29904
2001 03 20.36035 13 38 25.98 -07 33 15.2   699 – Lowell Observatory-LONEOS MPS 29904
2001 03 20.37616 13 38 25.44 -07 33 07.8   699 – Lowell Observatory-LONEOS MPS 29904
2001 03 20.40223 13 38 24.54 -07 32 54.6   699 – Lowell Observatory-LONEOS MPS 29904
2001 03 30.55576 13 31 52.61 -06 03 12.6 19.7   608 – Haleakala-AMOS MPS 27461
2001 03 30.56647 13 31 52.13 -06 03 06.6 20.1   608 – Haleakala-AMOS MPS 27461
2001 03 30.57755 13 31 51.65 -06 03 00.1 20.6   608 – Haleakala-AMOS MPS 27461
2001 04 01.27134 13 30 37.49 -05 47 02.7 18.8   704 – Lincoln Laboratory ETS, New Mexico MPS 27461
2001 04 01.28575 13 30 36.80 -05 46 55.0 18.7   704 – Lincoln Laboratory ETS, New Mexico MPS 27461
2001 04 01.31468 13 30 35.54 -05 46 38.8 18.9   704 – Lincoln Laboratory ETS, New Mexico MPS 27461
2001 04 17.30398 13 17 52.17 -03 12 00.6 18.5 R 699 – Lowell Observatory-LONEOS MPS 29435
2001 04 17.35042 13 17 49.85 -03 11 34.1   699 – Lowell Observatory-LONEOS MPS 29435
2001 04 17.39591 13 17 47.61 -03 11 08.2   699 – Lowell Observatory-LONEOS MPS 29435
2001 04 17.44114 13 17 45.26 -03 10 42.8   699 – Lowell Observatory-LONEOS MPS 29435
2002 07 13.39151 00 21 53.89 +10 38 20.3 18.8   704 – Lincoln Laboratory ETS, New Mexico MPS 59422
2002 07 13.40448 00 21 54.67 +10 38 23.6 19.2   704 – Lincoln Laboratory ETS, New Mexico MPS 59422
2002 07 13.41730 00 21 55.38 +10 38 27.1 19.4   704 – Lincoln Laboratory ETS, New Mexico MPS 59422
2002 07 13.43080 00 21 56.13 +10 38 30.2 19.0   704 – Lincoln Laboratory ETS, New Mexico MPS 59422
2002 07 14.35665 00 22 49.47 +10 41 57.7 18.5   704 – Lincoln Laboratory ETS, New Mexico MPS 59422
2002 07 14.36923 00 22 50.19 +10 42 00.2 19.2   704 – Lincoln Laboratory ETS, New Mexico MPS 59422
2002 07 14.38183 00 22 50.88 +10 42 03.9 18.8   704 – Lincoln Laboratory ETS, New Mexico MPS 59422
2002 07 14.39441 00 22 51.59 +10 42 05.5 19.4   704 – Lincoln Laboratory ETS, New Mexico MPS 59422
2002 07 14.40845 00 22 52.34 +10 42 08.8 19.3   704 – Lincoln Laboratory ETS, New Mexico MPS 59422
2002 09 06.26842 00 37 27.85 +08 11 53.8 18.3   704 – Lincoln Laboratory ETS, New Mexico MPS 62271
2002 09 06.28234 00 37 27.42 +08 11 45.5 18.6   704 – Lincoln Laboratory ETS, New Mexico MPS 62271
2002 09 06.29619 00 37 27.04 +08 11 36.9 18.8   704 – Lincoln Laboratory ETS, New Mexico MPS 62271
2002 09 06.31002 00 37 26.62 +08 11 28.8 18.8   704 – Lincoln Laboratory ETS, New Mexico MPS 62271
2002 09 06.32406 00 37 26.22 +08 11 20.4 18.9   704 – Lincoln Laboratory ETS, New Mexico MPS 62271
2002 09 14.45053 00 33 03.35 +06 43 15.9 17.2   644 – Palomar Mountain/NEAT MPS 62271
